DW7259 Weather Reports


Display with metric or nautical units.
time (UTC)temp
F
wind
direction
speed
MPH
gust
MPH
rain 1hr
in
rain 24hr
in
rain mn
in
humidity
%
barometer
mb
20260504050012 49 138 0.0 2.0 0.00 0.01 0.01 71 1004.6
20260504044519 50 138 0.0 0.0 0.00 0.01 0.01 70 1004.7
20260504043012 51 274 0.0 0.0 0.00 0.01 0.01 66 1004.7
20260504041513 51 360 0.0 3.0 0.00 0.01 0.01 65 1004.5
20260504040013 52 360 0.0 0.0 0.00 0.01 0.01 64 1004.2
20260504034509 52 360 0.0 4.0 0.01 0.01 0.01 63 1003.8
20260504033012 53 360 0.0 0.0 0.01 0.01 0.01 63 1003.6
20260504031508 53 360 0.0 6.0 0.01 0.01 0.01 62 1003.6
20260504030013 54 360 0.0 8.0 0.01 0.01 0.01 61 1003.6
20260504024507 54 360 0.0 4.0 0.00 0.00 0.00 59 1003.5
20260504023008 55 360 0.0 9.0 0.00 0.00 0.00 62 1003.6
20260504021508 55 178 3.0 8.0 0.00 0.00 0.00 57 1004.5
20260504020006 55 178 5.0 7.0 0.00 0.00 0.00 59 1004.6
20260504014506 54 360 3.0 7.0 0.00 0.01 0.00 60 1004.5
20260504013006 54 360 0.0 3.0 0.00 0.01 0.00 60 1004.1
20260504011515 55 360 0.0 7.0 0.00 0.01 0.00 60 1003.7
20260504010004 55 360 0.0 5.0 0.00 0.01 0.00 61 1003.7
20260504004504 55 360 0.0 3.0 0.00 0.02 0.00 61 1003.8
20260504003005 56 360 0.0 6.0 0.00 0.02 0.00 60 1003.5
20260504001503 57 360 1.0 9.0 0.00 0.02 0.00 58 1003.9
20260504000002 58 360 3.0 12.0 0.00 0.02 0.00 59 1003.2
20260503234505 57 360 0.0 4.0 0.00 0.02 0.00 59 1003.4
20260503233002 56 360 4.0 9.0 0.00 0.02 0.00 64 1003.6
20260503231502 55 360 0.0 3.0 0.00 0.02 0.00 66 1003.8
20260503224600 58 63 3.0 14.0 0.00 0.02 0.00 57 1004.4
20260503224501 58 360 3.0 14.0 0.00 0.02 0.00 57 1004.4
20260503223059 61 360 5.0 22.0 0.00 0.02 0.00 37 1003.9
20260503221603 62 360 17.0 29.0 0.00 0.02 0.00 37 1002.1
20260503220118 63 360 17.0 41.0 0.00 0.02 0.00 38 1001.6
20260503214558 70 92 6.0 17.0 0.00 0.02 0.00 24 1000.6
20260503213058 72 360 0.0 9.0 0.00 0.02 0.00 25 1000.7
20260503211554 73 360 2.0 10.0 0.00 0.02 0.00 25 1001.2
20260503210049 72 360 0.0 6.0 0.00 0.02 0.00 26 1001.4
20260503204546 71 360 2.0 6.0 0.00 0.02 0.00 28 1001.7
20260503203052 70 360 0.0 8.0 0.00 0.02 0.00 32 1001.9
20260503201544 70 360 0.0 1.0 0.00 0.02 0.00 32 1002.2
20260503200039 70 58 4.0 7.0 0.00 0.02 0.00 32 1002.6
20260503194535 68 360 0.0 1.0 0.00 0.02 0.00 36 1002.8
20260503193032 67 360 0.0 3.0 0.00 0.02 0.00 36 1003.3
20260503191537 68 360 3.0 10.0 0.00 0.02 0.00 36 1003.5
20260503190030 69 360 4.0 9.0 0.00 0.02 0.00 33 1003.6
20260503184527 70 48 1.0 6.0 0.00 0.02 0.00 33 1003.9
20260503183022 67 360 1.0 7.0 0.00 0.02 0.00 38 1004.0
20260503181518 65 360 1.0 4.0 0.00 0.02 0.00 41 1004.2
20260503180015 64 360 0.0 3.0 0.00 0.02 0.00 43 1004.3
20260503174510 63 360 1.0 5.0 0.00 0.02 0.00 50 1004.4
20260503173007 62 360 1.0 6.0 0.00 0.02 0.00 56 1004.5
20260503171503 61 360 1.0 5.0 0.00 0.02 0.00 57 1004.6
20260503170112 60 360 0.0 2.0 0.00 0.02 0.00 61 1004.6
20260503110105 49 286 0.0 0.0 0.00 0.02 0.00 77 1006.1
20260503081544 51 270 0.0 0.0 0.00 0.02 0.00 79 1006.7
20260503071536 52 34 0.0 3.0 0.00 0.02 0.00 76 1006.4